EHI
0 0 0 0 0 0 0 0 0 0 0 0 0 0 0 0 0 0 0 0 0 0 0 0 0 0 0 0 0 0 0 0 0 0 0 0 0 0 0 0 0 0 0 0
0 0 0 0 0 0 0 0 0 0 0 0 0 0 0 0 0 0 0 0 0 0 0 0 0 0 0 0 0 0 0 0 0 0 0 0 0 0 0 0 0 0 0 0
0 0 0 0 0 0 0 0 0 0 0 0 0 0 0 0 0 0 0 0 0 0 0 0 0 0 0 0 0 0 0 0 0 0 0 0 0 0 0 0 0 0 0 0
0 0 0 0 0 0 0 0 0 0 0 0 0 0 0 0 0 0 0 0 0 0 0 0 0 0 0 0 0 0 0 0 0 0 0 0 0 0 0 0 0 0 0 0
0 0 0 0 0 0 0 0 0 0 0 0 0 0 0 0 0 0 0 0 0 0 0 0 0 0 0 0 0 0 0 0 0 0 0 0 0 0 0 0 0 0 0 0
0 0 0 0 0 0 0 0 0 0 0 0 0 0 0 0 0 0 0 0 0 0 0 0 0 0 0 0 0 0 0 0 0 0 0 0 0 0 0 0 0 0 0 0
0 0 0 0 0 0 0 0 0 0 0 0 0 0 0 0 0 0 0 0 0 0 0 0 0 0 0 0 0 0 0 0 0 0 0 0 0 0 0 0 0 0 0 0
0 0 0 0 0 0 0 0 0 0 0 0 0 0 0 0 0 0 0 0 0 0 0 0 0 0 0 0 0 0 0 0 0 0 0 0 0 0 0 0 0 0 0 0
0 0 0 0 0 0 0 0 0 0 0 0 0 0 0 0 0 0 0 0 0 0 0 0 0 0 0 0 0 0 0 0 0 0 0 0 0 0 0 0 0 0 0 0
0 0 0 0 0 0 0 0 0 0 0 0 0 0 0 0 0 0 0 0 0 0 0 0 0 0 0 0 0 0 0 0 0 0 0 0 0 0 0 0 0 0 0 0
0 0 0 0 0 0 0 0 0 0 0 0 0 0 0 0 0 0 0 0 0 0 0 0 0 0 0 0 0 0 0 0 0 0 0 0 0 0 0 0 0 0 0 0
0 0 0 0 0 0 0 0 0 0 0 0 0 0 0 0 0 0 0 0 0 0 0 0 0 0 0 0 0 0 0 0 0 0 0 0 0 0 0 0 0 0 0 0
0 0 0 0 0 0 0 0 0 0 0 0 0 0 0 0 0 0 0 0 0 0 0 0 0 0 0 0 0 0 0 0 0 0 0 0 0 0 0 0 0 0 0 0
0 0 0 0 0 0 0 0 0 0 0 0 0 0 0 0 0 0 0 0 0 0 0 0 0 0 0 0 0 0 0 0 0 0 0 0 0 0 0 0 0 0 0 0
0 0 0 0 0 0 0 0 0 0 0 0 0 0 0 0 0 0 0 0 0 0 0 0 0 0 0 0 0 0 0 0 0 0 0 0 0 0 0 0 0 0 0 0
0 0 0 0 0 0 0 0 0 0 0 0 0 0 0 0 0 0 0 0 0 0 0 0 0 0 0 0 0 0 0 0 0 0 0 0 0 0 0 0 0 0 0 0
0 0 0 0 0 0 0 0 0 0 0 0 0 0 0 0 0 0 0 0 0 0 0 0 0 0 0 0 0 0 0 0 0 0 0 0 0 0 0 0 0 0 0 0
0 0 0 0 0 0 0 0 0 0 0 0 0 0 0 0 0 0 0 0 0 0 0 0 0 0 0 0 0 0 0 0 0 0 0 0 0 0 0 0 0 0 0 0
0 0 0 0 0 0 0 0 0 0 0 0 0 0 0 0 0 0 0 0 0 0 0 0 0 0 0 0 0 0 0 0 0 0 0 0 0 0 0 0 0 0 0 0
0 0 0 0 0 0 0 0 0 0 0 0 0 0 0 0 0 0 0 0 0 0 0 0 0 0 0 0 0 0 0 0 0 0 0 0 0 0 0 0 0 0 0 0
0 0 0 0 0 0 0 0 0 0 0 0 0 0 0 0 0 0 0 0 0 0 0 0 0 0 0 0 0 0 0 0 0 0 0 0 0 0 0 0 0 0 0 0
0 0 0 0 0 0 0 0 0 0 0 0 0 0 0 0 0 0 0 0 0 0 0 0 0 0 0 0 0 0 0 0 0 0 0 0 0 0 0 0 0 0 0 0
0 0 0 0 0 0 0 0 0 0 0 0 0 0 0 0 0 0 0 0 0 0 0 0 0 0 0 0 0 0 0 0 0 0 0 0 0 0 0 0 0 0 0 0
0 0 0 0 0 0 0 0 0 0 0 0 0 0 0 0 0 0 0 0 0 0 0 0 0 0 0 0 0 0 0 0 0 0 0 0 0 0 0 0 0 0 0 0
0 0 0 0 0 0 0 0 0 0 0 0 0 0 0 0 0 0 0 0 0 0 0 0 0 0 0 0 0 0 0 0 0 0 0 0 0 0 0 0 0 0 0 0
0 0 0 0 0 0 0 0 0 0 0 0 0 0 0 0 0 0 0 0 0 0 0 0 0 0 0 0 0 0 0 0 0 0 0 0 0 0 0 0 0 0 0 0
0 0 0 0 0 0 0 0 0 0 0 0 0 0 0 0 0 0 0 0 0 0 0 0 0 0 0 0 0 0 0 0 0 0 0 0 0 0 0 0 0 0 0 0
Wind_Speed
7 6 4 6 7 6 8 8 9 10 10 13 9 9 8 7 6 6 6 6 5 5 4 4 4 4 4 4 3 3 2 2 3 3 2 2 1 1 1 1 2 2 2 2
6 4 5 8 9 8 9 8 10 10 14 9 7 6 6 6 6 6 7 6 5 4 4 4 4 4 5 4 4 3 2 3 3 3 3 3 2 2 1 1 2 2 2 2
5 4 4 9 8 8 6 6 6 9 11 6 7 8 7 7 6 6 6 6 5 4 4 4 4 4 4 5 4 3 2 3 3 3 3 3 3 1 1 2 1 2 2 2
3 3 6 7 1 4 5 6 6 7 7 6 7 8 7 5 4 6 6 6 5 5 5 4 4 4 4 4 3 3 3 3 3 3 3 3 2 2 2 2 2 2 3 3
1 3 10 6 1 2 3 7 4 7 8 7 6 6 5 3 3 4 5 5 4 4 4 4 4 4 3 3 3 3 4 4 3 3 3 3 2 2 2 2 2 2 3 3
2 3 7 6 2 1 1 6 3 3 6 5 4 4 6 6 6 6 5 4 4 4 4 4 5 4 3 3 3 4 4 4 4 3 3 3 3 3 2 2 2 2 3 2
5 6 10 4 1 1 2 6 4 3 4 3 3 5 6 7 6 5 4 4 4 4 4 4 5 4 3 4 4 5 4 4 4 3 3 3 2 2 2 2 1 2 3 3
4 5 10 1 3 4 5 3 3 4 3 4 5 5 5 5 5 5 5 5 5 4 4 5 4 4 4 5 5 5 4 4 4 3 3 3 2 1 1 1 1 2 2 3
8 8 3 4 5 3 2 3 4 4 4 4 4 5 5 5 5 5 5 5 4 4 5 5 5 4 4 6 5 4 4 3 3 4 3 3 2 2 1 1 1 2 2 2
5 7 5 5 4 4 3 4 5 4 4 3 4 5 5 5 5 5 5 4 4 4 4 5 5 5 5 5 5 4 4 4 3 3 3 2 2 2 1 1 1 2 2 2
6 6 5 4 5 5 5 5 5 4 4 4 4 5 5 5 5 4 4 4 3 3 4 5 5 5 5 5 4 4 3 3 3 3 2 2 2 1 2 1 2 3 2 2
7 5 4 6 4 4 5 5 5 5 5 4 4 5 5 5 4 4 4 4 4 4 4 5 5 5 5 5 4 3 3 3 2 2 2 2 2 3 4 3 5 5 4 4
5 4 4 6 5 3 4 5 4 4 5 5 4 4 4 4 4 3 4 4 4 4 5 5 5 5 5 4 3 3 3 3 2 2 2 2 2 2 3 4 5 5 5 5
4 3 4 4 4 4 4 4 3 3 4 3 3 3 3 3 3 3 4 4 4 4 4 5 5 6 5 4 3 3 3 4 3 2 2 2 2 2 2 2 3 3 5 6
3 3 5 5 4 3 3 3 3 4 4 4 3 3 3 3 4 4 4 4 4 4 4 5 5 6 5 4 3 3 3 2 2 2 2 2 2 1 2 2 2 3 3 4
5 4 3 3 4 4 3 3 3 4 4 4 4 4 4 4 4 4 4 3 3 5 5 5 6 6 4 3 3 3 2 4 3 2 2 1 1 1 2 2 2 2 2 3
3 4 4 4 5 4 4 3 3 4 3 4 4 4 4 3 3 4 4 4 4 5 5 5 6 5 4 3 2 2 2 3 4 2 2 2 1 1 2 2 2 2 2 3
4 5 4 4 4 4 4 4 3 3 3 4 4 3 3 3 4 5 5 5 4 5 5 5 5 5 3 3 2 2 2 2 2 2 2 2 2 1 1 1 2 2 2 3
3 3 3 3 3 3 3 3 3 3 3 3 2 3 3 3 4 4 4 4 5 6 6 6 8 5 3 4 3 1 2 2 2 2 2 3 3 2 2 2 2 2 2 2
3 3 3 3 2 2 2 3 3 3 3 3 3 3 4 4 4 4 4 4 3 4 5 6 5 4 3 3 3 1 1 2 2 2 2 2 2 2 2 2 2 2 2 2
3 3 3 3 3 3 2 2 2 3 3 3 2 3 4 4 4 3 3 4 5 5 5 7 4 4 3 3 3 2 2 2 2 2 2 2 2 2 3 3 3 3 3 3
3 3 3 3 3 3 3 2 2 3 3 3 3 3 4 4 4 4 3 3 4 7 5 4 4 5 6 5 2 2 2 2 2 2 2 2 2 3 3 3 3 3 3 3
3 2 3 3 3 3 3 3 3 2 3 3 4 4 4 4 3 3 5 4 4 7 5 4 6 8 8 4 2 2 2 2 2 2 2 2 3 3 3 3 3 3 3 3
2 2 3 2 2 2 3 4 3 3 3 3 3 4 4 4 4 3 3 6 8 7 4 6 8 9 7 3 2 2 3 3 3 3 3 3 3 3 3 3 3 3 3 4
2 2 2 2 2 2 3 4 4 3 3 3 4 4 3 3 3 4 4 4 7 7 4 6 8 8 5 2 2 3 3 3 3 3 3 3 3 3 3 3 3 3 3 3
2 2 2 2 2 3 3 2 3 3 3 4 4 3 3 3 3 3 3 4 5 6 5 4 4 5 3 3 3 3 3 4 4 4 3 3 4 4 3 3 4 4 4 4
2 2 2 3 3 2 2 2 3 3 3 4 4 4 4 3 3 3 4 3 4 4 4 3 3 3 3 3 3 3 3 3 3 3 3 3 3 3 4 4 4 4 4 4
Wind_Direction
260 269 253 249 250 223 216 222 230 254 263 276 291 291 290 292 297 300 305 306 301 301 307 315 321 322 319 317 320 320 322 313 303 300 300 291 286 268 256 251 256 246 233 233
279 263 253 264 260 238 235 240 247 270 277 278 298 303 302 302 299 301 301 300 303 308 313 312 313 313 312 310 311 312 301 294 301 310 304 289 272 244 229 242 256 254 247 245
281 310 321 277 244 216 227 227 214 240 262 313 318 313 304 299 297 296 298 303 304 303 297 298 299 301 301 304 312 312 299 301 305 304 296 286 274 252 243 244 250 262 258 247
292 356 260 252 204 199 230 251 228 257 285 297 291 301 294 287 291 298 302 305 307 310 313 311 307 308 308 313 316 314 308 307 308 303 293 289 272 247 240 242 238 242 253 249
234 272 278 292 254 180 219 277 240 250 278 302 316 317 310 313 309 298 303 309 307 310 315 321 321 316 317 322 324 326 319 305 299 297 296 288 266 250 234 232 242 244 252 243
191 237 256 268 259 222 146 286 291 255 280 302 338 323 302 325 328 323 326 330 329 333 339 339 332 331 331 325 327 318 311 306 302 296 285 279 259 250 236 234 244 255 265 254
221 240 263 266 256 118 176 271 316 284 276 267 254 260 293 318 325 326 331 335 340 343 342 333 333 339 336 327 315 307 309 311 316 313 298 286 273 250 232 242 251 254 268 271
197 226 258 217 127 188 236 288 294 285 279 267 276 296 310 321 325 331 336 340 342 340 334 333 339 343 334 323 316 317 317 319 321 320 312 316 315 297 255 226 241 260 269 284
203 223 259 186 206 240 271 281 281 278 287 281 286 293 306 311 314 320 325 330 335 334 331 335 338 338 323 316 323 325 324 323 322 323 323 328 327 317 306 266 238 259 260 272
257 264 266 247 263 285 275 270 283 286 287 276 279 288 298 304 311 316 320 324 328 332 331 329 329 325 313 316 323 325 322 321 322 325 328 336 327 322 316 298 270 269 266 270
258 279 303 271 253 269 286 292 298 305 296 283 278 289 292 299 302 305 313 317 319 318 316 315 321 320 320 322 322 321 318 319 322 323 323 327 324 324 302 284 263 260 259 262
246 244 242 272 282 276 279 285 290 297 302 298 281 282 291 294 296 302 309 315 317 318 315 315 319 319 322 324 323 320 318 321 318 318 315 317 317 321 320 311 318 305 297 288
252 272 258 275 290 277 270 282 289 287 283 289 291 284 286 292 299 307 312 312 308 308 308 311 316 317 320 320 319 313 306 309 309 314 314 312 312 313 319 331 339 338 332 328
264 280 283 282 287 296 292 295 302 304 301 295 296 303 303 302 307 310 306 301 302 307 309 311 316 317 318 316 310 306 301 300 304 302 302 302 304 309 314 323 329 332 337 338
277 265 265 284 297 307 314 322 325 321 320 321 318 311 306 303 301 303 307 311 317 319 316 317 317 316 320 316 309 308 310 310 305 308 303 299 303 313 319 319 316 320 333 337
297 300 292 295 300 309 316 316 307 307 312 316 317 310 303 300 302 308 313 320 320 314 313 314 310 310 313 312 309 311 310 315 318 313 310 310 311 315 315 316 315 321 325 324
297 296 293 295 296 297 293 287 283 290 303 308 306 309 316 321 321 321 319 317 306 297 299 304 305 308 308 305 303 305 308 310 314 315 314 309 309 304 303 307 307 310 315 323
249 258 264 268 272 281 289 295 294 297 296 299 310 322 326 320 311 310 315 321 321 317 312 310 311 309 303 306 303 301 303 303 307 307 306 306 304 296 291 289 291 293 304 314
283 281 285 287 283 277 282 289 294 298 306 312 311 307 307 309 311 314 322 328 326 321 319 318 325 330 315 310 317 301 302 304 305 303 299 299 307 311 304 295 293 291 297 303
309 311 311 313 313 305 301 308 312 315 319 320 319 324 326 324 324 322 321 314 302 297 306 318 326 323 314 304 313 299 290 292 295 299 297 289 286 288 287 286 285 285 288 287
318 324 326 325 325 325 317 315 317 316 320 324 316 309 310 315 321 323 319 312 313 315 318 322 327 317 312 315 310 296 285 283 283 281 283 284 285 284 283 283 285 288 288 286
321 323 323 325 326 324 323 319 311 310 317 319 318 318 320 319 319 317 300 291 305 316 325 321 318 314 321 326 318 305 289 281 280 281 279 276 277 280 281 283 281 284 285 283
317 315 316 318 314 313 322 323 316 311 309 307 309 310 306 301 302 305 306 308 310 314 323 315 315 319 327 337 327 309 299 292 284 277 274 272 270 271 274 278 279 281 283 283
318 317 316 318 327 330 323 318 316 310 303 300 299 297 298 304 305 294 291 306 316 318 319 316 321 325 333 343 327 313 302 294 289 284 280 276 272 270 270 272 276 278 277 277
320 321 323 328 323 309 304 312 319 319 316 312 307 302 297 290 290 299 305 308 313 321 323 320 324 328 335 325 314 305 299 291 285 282 275 277 277 275 272 269 267 271 274 274
321 316 308 300 296 301 306 309 309 310 313 313 314 312 311 308 301 301 308 310 311 318 323 320 320 322 325 319 311 304 296 298 303 297 283 277 275 272 271 271 271 269 269 267
327 326 325 323 321 314 307 302 301 301 301 298 303 309 312 315 315 315 315 316 317 316 315 315 317 316 314 312 308 304 298 292 288 287 285 278 274 271 271 270 270 270 268 266